(273381) = 2006 VE16

Discovered at Kitt Peak on 2006-11-09 by Spacewatch.

Orbit

Orbit type: Main Belt

Note: WebGL enabled browser required.

epoch2023-02-25.0
epoch JD2460000.5
perihelion date2020-01-31.33914
perihelion JD2458879.83914
argument of perihelion (°)84.84701
ascending node (°)27.29446
inclination (°)4.86208
eccentricity0.0716217
perihelion distance (AU)2.0108213
Tisserand w.r.t. Jupiter3.7
ΔV w.r.t. Earth (km/sec)8.8
semimajor axis (AU)2.1659504
mean anomaly (°)346.50164
mean daily motion (°/day)0.30919400
aphelion distance (AU)2.321
period (years)3.19
P-vector [x]-0.37525135
P-vector [y]0.81332295
P-vector [z]0.44462591
Q-vector [x]-0.92610788
Q-vector [y]-0.34908580
Q-vector [z]-0.14305001
absolute magnitude18.2
phase slope0.15
uncertainty0
referenceMPO 730183
observations used206
oppositions11
arc length (days)6929
first opposition used2004
last opposition used2023
residual rms (arc-secs)0.71
perturbers coarse indicatorM-v
perturbers precise indicator003Ek
first observation date used2004-01-19.0
last observation date used2023-01-08.0
computer nameMPCLINUX
JD of orbit computation2456819.417856
perihelion JD uncertainty (days)1.7521E-04
argument of perihelion uncertainty (°)6.5130E-05
ascending node uncertainty (°)3.1698E-05
inclination uncertainty (°)5.3494E-06
eccentricity uncertainty 3.6423E-08
perihelion distance uncertainty (AU)6.9480E-08
Minimum Orbit Intersection Distances (in AU)
for orbit epoch: 2460000.5, reference: E2023-A20
Mercury1.68394
Venus1.29351
Earth1.0338
Mars0.37665
Jupiter2.72808
Saturn7.04469
Uranus16.3613
Neptune27.6719

Observations

208 total observations over interval: 2004 01 19.08958 – 2023 01 08.362347
These data are available for download (format description).

Date (UT) J2000 RA J2000 Dec Magn Location Ref
2004 01 19.08958 05 34 40.48 +31 39 58.2 21.2 V 691 – Steward Observatory, Kitt Peak-Spacewatch MPS 299427
2004 01 19.11661 05 34 39.41 +31 39 55.2 21.5 V 691 – Steward Observatory, Kitt Peak-Spacewatch MPS 299427
2004 01 19.14345 05 34 38.35 +31 39 52.0 21.1 V 691 – Steward Observatory, Kitt Peak-Spacewatch MPS 299427
2006 09 27.42992 03 55 22.65 +21 42 12.0 21.5 V G96 – Mt. Lemmon Survey MPS 280175
2006 09 27.43728 03 55 22.69 +21 42 13.4 21.6 V G96 – Mt. Lemmon Survey MPS 280175
2006 09 27.44456 03 55 22.83 +21 42 15.4 21.4 V G96 – Mt. Lemmon Survey MPS 280175
2006 09 27.45182 03 55 22.87 +21 42 17.3 21.5 V G96 – Mt. Lemmon Survey MPS 280175
2006 10 21.46359 03 50 48.64 +22 52 06.6 21.0 V 691 – Steward Observatory, Kitt Peak-Spacewatch MPS 280175
2006 10 21.48099 03 50 47.91 +22 52 08.2 20.8 V 691 – Steward Observatory, Kitt Peak-Spacewatch MPS 280175
2006 10 21.49839 03 50 47.18 +22 52 10.0 21.1 V 691 – Steward Observatory, Kitt Peak-Spacewatch MPS 280175
2006 10 31.42881 03 42 40.08 +23 04 32.5   691 – Steward Observatory, Kitt Peak-Spacewatch MPS 280175
2006 10 31.44612 03 42 39.03 +23 04 32.9   691 – Steward Observatory, Kitt Peak-Spacewatch MPS 280175
2006 10 31.46350 03 42 37.94 +23 04 33.3   691 – Steward Observatory, Kitt Peak-Spacewatch MPS 280175
2006 11 09.23586 03 33 11.65 +23 05 25.2   691 – Steward Observatory, Kitt Peak-Spacewatch MPS 187235
2006 11 09.25391 03 33 10.33 +23 05 24.7   691 – Steward Observatory, Kitt Peak-Spacewatch MPS 187235
2006 11 09.27172 03 33 09.02 +23 05 24.3   691 – Steward Observatory, Kitt Peak-Spacewatch MPS 187235
2006 11 13.17297 03 28 31.60 +23 02 41.6   691 – Steward Observatory, Kitt Peak-Spacewatch MPS 187235
2006 11 13.19032 03 28 30.31 +23 02 40.8   691 – Steward Observatory, Kitt Peak-Spacewatch MPS 187235
2006 11 13.20769 03 28 28.99 +23 02 40.4   691 – Steward Observatory, Kitt Peak-Spacewatch MPS 187235
2009 09 26.34371 01 39 41.33 +08 28 33.2 21.2 V 691 – Steward Observatory, Kitt Peak-Spacewatch MPS 299427
2009 09 26.36131 01 39 40.41 +08 28 31.3 20.6 V 691 – Steward Observatory, Kitt Peak-Spacewatch MPS 299427
2009 09 26.37892 01 39 39.49 +08 28 29.1 20.8 V 691 – Steward Observatory, Kitt Peak-Spacewatch MPS 299427
2009 10 12.42537 01 23 42.36 +07 40 35.1 20.0 V G96 – Mt. Lemmon Survey MPS 299427
2009 10 12.42925 01 23 42.10 +07 40 33.8 20.6 V G96 – Mt. Lemmon Survey MPS 299427
2009 10 12.43118 01 23 41.96 +07 40 34.3 20.0 V G96 – Mt. Lemmon Survey MPS 299427
2009 10 21.31517 01 13 55.63 +07 10 03.6 20.7 V G96 – Mt. Lemmon Survey MPS 299427
2009 10 21.32126 01 13 55.23 +07 10 02.1 20.6 V G96 – Mt. Lemmon Survey MPS 299427
2009 10 21.32743 01 13 54.80 +07 10 01.2 20.5 V G96 – Mt. Lemmon Survey MPS 299427
2009 10 21.33348 01 13 54.37 +07 09 59.9 20.8 V G96 – Mt. Lemmon Survey MPS 299427
2009 10 27.18979 01 07 47.74 +06 51 38.0 20.8 V G96 – Mt. Lemmon Survey MPS 300732
2009 10 27.19678 01 07 47.31 +06 51 37.1 20.8 V G96 – Mt. Lemmon Survey MPS 300732
2009 10 27.20367 01 07 46.92 +06 51 35.9 20.5 V G96 – Mt. Lemmon Survey MPS 300732
2009 10 27.21088 01 07 46.45 +06 51 34.5 20.6 V G96 – Mt. Lemmon Survey MPS 300732
2009 11 20.20404 00 51 14.68 +06 19 46.0 21.3 V G96 – Mt. Lemmon Survey MPS 303356
2009 11 20.20926 00 51 14.58 +06 19 46.3 20.7 V G96 – Mt. Lemmon Survey MPS 303356
2009 11 20.21455 00 51 14.43 +06 19 46.6 21.1 V G96 – Mt. Lemmon Survey MPS 303356
2009 11 20.21983 00 51 14.32 +06 19 46.4 20.9 V G96 – Mt. Lemmon Survey MPS 303356
2009 12 10.12738 00 51 49.93 +07 07 08.9 21.5 V G96 – Mt. Lemmon Survey MPS 307332
2009 12 10.13256 00 51 50.07 +07 07 09.8 21.7 V G96 – Mt. Lemmon Survey MPS 307332
2009 12 10.13780 00 51 50.14 +07 07 11.3 21.5 V G96 – Mt. Lemmon Survey MPS 307332
2009 12 10.14296 00 51 50.22 +07 07 13.1 22.4 V G96 – Mt. Lemmon Survey MPS 307332
2011 03 28.28664 14 06 56.79 -11 56 16.4 21.2 V 691 – Steward Observatory, Kitt Peak-Spacewatch MPS 375569
2011 03 28.30443 14 06 55.83 -11 56 14.7 21.1 V 691 – Steward Observatory, Kitt Peak-Spacewatch MPS 375569
2011 03 28.32219 14 06 55.00 -11 56 13.5 20.9 V 691 – Steward Observatory, Kitt Peak-Spacewatch MPS 375569
2011 04 01.29684 14 03 33.34 -11 49 33.5 20.7 V 691 – Steward Observatory, Kitt Peak-Spacewatch MPS 375569
2011 04 01.31462 14 03 32.36 -11 49 31.3 21.0 V 691 – Steward Observatory, Kitt Peak-Spacewatch MPS 375570
2011 04 01.33239 14 03 31.33 -11 49 29.8 20.6 V 691 – Steward Observatory, Kitt Peak-Spacewatch MPS 375570
2011 04 05.30222 13 59 46.93 -11 41 02.6 20.8 V 691 – Steward Observatory, Kitt Peak-Spacewatch MPS 377183
2011 04 05.31999 13 59 45.86 -11 40 59.9 20.7 V 691 – Steward Observatory, Kitt Peak-Spacewatch MPS 377183
2011 04 05.33773 13 59 44.78 -11 40 57.3 20.7 V 691 – Steward Observatory, Kitt Peak-Spacewatch MPS 377183
2011 04 13.29259 13 51 26.27 -11 19 50.0 20.6 V 691 – Steward Observatory, Kitt Peak-Spacewatch MPS 378659
2011 04 13.31037 13 51 25.07 -11 19 47.1 20.7 V 691 – Steward Observatory, Kitt Peak-Spacewatch MPS 378659
2011 04 13.32814 13 51 23.84 -11 19 44.3 20.5 V 691 – Steward Observatory, Kitt Peak-Spacewatch MPS 378659
2011 04 30.24701 13 33 11.05 -10 28 23.6 20.7 V G96 – Mt. Lemmon Survey MPS 382088
2011 04 30.25461 13 33 10.54 -10 28 22.2 20.9 V G96 – Mt. Lemmon Survey MPS 382088
2011 04 30.26219 13 33 10.08 -10 28 21.4 20.7 V G96 – Mt. Lemmon Survey MPS 382088
2011 04 30.26971 13 33 09.61 -10 28 19.8 20.8 V G96 – Mt. Lemmon Survey MPS 382088
2012 09 16.39716 23 36 31.75 -08 03 06.6 20.6 V G96 – Mt. Lemmon Survey MPS 433205
2012 09 16.40123 23 36 31.46 -08 03 07.9 20.4 V G96 – Mt. Lemmon Survey MPS 433205
2012 09 16.40529 23 36 31.24 -08 03 09.5 20.4 V G96 – Mt. Lemmon Survey MPS 433205
2012 09 16.40931 23 36 30.99 -08 03 10.3 20.4 V G96 – Mt. Lemmon Survey MPS 433205
2014 02 26.58630 12 11 38.041 +04 39 32.64 20.6 w F51 – Pan-STARRS 1, Haleakala MPS 503756
2014 02 26.59855 12 11 37.425 +04 39 35.57 20.6 w F51 – Pan-STARRS 1, Haleakala MPS 503756
2014 02 27.48530 12 10 54.596 +04 43 03.85 20.6 w F51 – Pan-STARRS 1, Haleakala MPS 503756
2014 02 27.49755 12 10 53.956 +04 43 06.74 20.5 w F51 – Pan-STARRS 1, Haleakala MPS 503756
2014 02 27.50985 12 10 53.308 +04 43 09.71 20.6 w F51 – Pan-STARRS 1, Haleakala MPS 503756
2014 02 27.52220 12 10 52.661 +04 43 12.62 20.7 w F51 – Pan-STARRS 1, Haleakala MPS 503756
2014 03 05.48969 12 05 31.525 +05 07 56.29 20.3 w F51 – Pan-STARRS 1, Haleakala MPS 505198
2014 03 05.50199 12 05 30.787 +05 07 59.44 20.4 w F51 – Pan-STARRS 1, Haleakala MPS 505198
2014 03 05.51437 12 05 30.031 +05 08 02.60 20.5 w F51 – Pan-STARRS 1, Haleakala MPS 505198
2014 03 05.52679 12 05 29.272 +05 08 05.81 20.6 w F51 – Pan-STARRS 1, Haleakala MPS 505198
2014 03 07.29714 12 03 45.54 +05 15 41.6   691 – Steward Observatory, Kitt Peak-Spacewatch MPS 505198
2014 03 07.31482 12 03 44.45 +05 15 46.7   691 – Steward Observatory, Kitt Peak-Spacewatch MPS 505198
2014 03 07.33251 12 03 43.36 +05 15 51.4   691 – Steward Observatory, Kitt Peak-Spacewatch MPS 505198
2014 03 11.36147 11 59 35.70 +05 33 13.7 20.2 V G96 – Mt. Lemmon Survey MPS 506197
2014 03 11.36654 11 59 35.37 +05 33 14.9 20.2 V G96 – Mt. Lemmon Survey MPS 506197
2014 03 11.37161 11 59 35.05 +05 33 16.5 20.1 V G96 – Mt. Lemmon Survey MPS 506197
2014 03 11.37668 11 59 34.68 +05 33 17.6 20.4 V G96 – Mt. Lemmon Survey MPS 506197
2014 03 12.29047 11 58 37.17 +05 37 12.0 20.3 V 691 – Steward Observatory, Kitt Peak-Spacewatch MPS 506197
2014 03 12.30818 11 58 36.00 +05 37 16.7 20.1 V 691 – Steward Observatory, Kitt Peak-Spacewatch MPS 506197
2014 03 12.32591 11 58 34.85 +05 37 21.6 20.2 V 691 – Steward Observatory, Kitt Peak-Spacewatch MPS 506197
2014 05 20.29452 11 28 22.938 +04 44 38.26 21.7 w F51 – Pan-STARRS 1, Haleakala MPS 516260
2014 05 20.30620 11 28 23.262 +04 44 33.68 21.8 w F51 – Pan-STARRS 1, Haleakala MPS 516260
2014 05 20.31789 11 28 23.615 +04 44 29.13 21.7 w F51 – Pan-STARRS 1, Haleakala MPS 516260
2015 07 24.47806 22 21 12.810 -18 30 36.33 21.3 w F51 – Pan-STARRS 1, Haleakala MPS 618331
2015 07 24.49009 22 21 12.325 -18 30 39.86 21.2 w F51 – Pan-STARRS 1, Haleakala MPS 618331
2015 07 24.50205 22 21 11.828 -18 30 43.39 21.3 w F51 – Pan-STARRS 1, Haleakala MPS 618331
